Regional Weather Roundup
Issued by NWS Charleston, WV

Home | Current Version | Previous Version | Text Only | Print | Product List | Glossary Off
Versions: 1 2 3 4 5 6 7 8 9 10 11 12 13 14 15 16 17 18 19 20 21 22 23 24 25 26 27 28 29 30 31 32 33 34 35 36 37 38 39 40 41 42 43 44 45 46 47 48 49 50

136
ASUS41 KRLX 191010
RWRRLX
West Virginia Regional Weather Roundup
National Weather Service Charleston WV
600 AM EDT TUE SEP 19 2017

Note: "fair" indicates few or no clouds below 12,000 feet with no
significant weather and/or obstructions to visibility.

WVZ003-191100-
Northern Panhandle of West Virginia

CITY           SKY/WX    TMP DP  RH WIND       PRES   REMARKS
WHEELING       CLEAR     64  61  90 E3        30.02S
$$

WVZ009-191100-
Northwest West Virginia

CITY           SKY/WX    TMP DP  RH WIND       PRES   REMARKS
PARKERSBURG    FOG       61  60  97 CALM      30.03S VSB 1/2
$$

WVZ006-191100-
Western West Virginia

CITY           SKY/WX    TMP DP  RH WIND       PRES   REMARKS
HUNTINGTON     MOCLDY    63  61  93 CALM      30.00R FOG
$$

WVZ015-191100-
West Central West Virginia

CITY           SKY/WX    TMP DP  RH WIND       PRES   REMARKS
CHARLESTON     FOG       62  61  96 CALM      30.01R VSB 1/4
$$

WVZ022-031-191100-
North Central West Virginia

CITY           SKY/WX    TMP DP  RH WIND       PRES   REMARKS
CLARKSBURG     FOG       58  57  97 NE3       30.03R VSB 1/2
MORGANTOWN     CLEAR     65  60  84 CALM      30.03S
$$

WVZ025-035-042-045-191100-
Southern West Virginia

CITY           SKY/WX    TMP DP  RH WIND       PRES   REMARKS
BECKLEY        CLEAR     59  57  93 CALM      30.07S
LOGAN            N/A     63  63 100 CALM      30.03S FOG
BLUEFIELD      CLEAR     60  57  89 CALM      30.09S
LEWISBURG      FOG       58  58  99 NE3       30.07S VSB<1/4
$$

WVZ047-191100-
Northern Mountains of West Virginia

CITY           SKY/WX    TMP DP  RH WIND       PRES   REMARKS
ELKINS         FOG       58  56  93 CALM      30.08S VSB 1/4
$$

WVZ052-191100-
Eastern Panhandle of West Virginia

CITY           SKY/WX    TMP DP  RH WIND       PRES   REMARKS
MARTINSBURG    MOCLDY    65  62  90 N3        30.04S FOG
PETERSBURG     CLOUDY    66  65  95 CALM      30.06R
$$




USA.gov is the U.S. government's official web portal to all federal, state and local government web resources and services.